Year,Month,Day,Hour,Minute,Value (Times are PST for temperature in C)
2011,05,04,00,00,5.70
2011,05,04,00,01,5.70
2011,05,04,00,02,5.80
2011,05,04,00,03,5.80
2011,05,04,00,04,5.80
2011,05,04,00,05,5.80
2011,05,04,00,06,5.80
2011,05,04,00,07,5.80
2011,05,04,00,08,5.80
2011,05,04,00,09,5.80
2011,05,04,00,10,5.90
2011,05,04,00,11,5.90
2011,05,04,00,12,5.90
2011,05,04,00,13,5.90
2011,05,04,00,14,5.90
2011,05,04,00,15,5.90
2011,05,04,00,16,5.90
2011,05,04,00,17,6.00
2011,05,04,00,18,6.00
2011,05,04,00,19,6.00
2011,05,04,00,20,6.00
2011,05,04,00,21,6.00
2011,05,04,00,22,6.10
2011,05,04,00,23,6.10
2011,05,04,00,24,6.10
2011,05,04,00,25,6.10
2011,05,04,00,26,6.10
2011,05,04,00,27,6.10
2011,05,04,00,28,6.10
2011,05,04,00,29,6.10
2011,05,04,00,30,6.10
2011,05,04,00,31,6.10
2011,05,04,00,32,6.10
2011,05,04,00,33,6.10
2011,05,04,00,34,6.10
2011,05,04,00,35,6.10
2011,05,04,00,36,6.20
2011,05,04,00,37,6.20
2011,05,04,00,38,6.20
2011,05,04,00,39,6.20
2011,05,04,00,40,6.20
2011,05,04,00,41,6.20
2011,05,04,00,42,6.20
2011,05,04,00,43,6.20
2011,05,04,00,44,6.20
2011,05,04,00,45,6.20
2011,05,04,00,46,6.10
2011,05,04,00,47,6.10
2011,05,04,00,48,6.10
2011,05,04,00,49,6.10
2011,05,04,00,50,6.10
2011,05,04,00,51,6.00
2011,05,04,00,52,6.00
2011,05,04,00,53,6.00
2011,05,04,00,54,6.00
2011,05,04,00,55,6.00
2011,05,04,00,56,5.90
2011,05,04,00,57,5.90
2011,05,04,00,58,5.90
2011,05,04,00,59,5.90
2011,05,04,01,00,5.90
2011,05,04,01,01,5.80
2011,05,04,01,02,5.80
2011,05,04,01,03,5.80
2011,05,04,01,04,5.80
2011,05,04,01,05,5.70
2011,05,04,01,06,5.70
2011,05,04,01,07,5.70
2011,05,04,01,08,5.70
2011,05,04,01,09,5.70
2011,05,04,01,10,5.70
2011,05,04,01,11,5.60
2011,05,04,01,12,5.60
2011,05,04,01,13,5.60
2011,05,04,01,14,5.60
2011,05,04,01,15,5.60
2011,05,04,01,16,5.60
2011,05,04,01,17,5.50
2011,05,04,01,18,5.50
2011,05,04,01,19,5.40
2011,05,04,01,20,5.40
2011,05,04,01,21,5.40
2011,05,04,01,22,5.40
2011,05,04,01,23,5.40
2011,05,04,01,24,5.40
2011,05,04,01,25,5.40
2011,05,04,01,26,5.30
2011,05,04,01,27,5.30
2011,05,04,01,28,5.30
2011,05,04,01,29,5.30
2011,05,04,01,30,5.30
2011,05,04,01,31,5.30
2011,05,04,01,32,5.30
2011,05,04,01,33,5.30
2011,05,04,01,34,5.30
2011,05,04,01,35,5.30
2011,05,04,01,36,5.30
2011,05,04,01,37,5.30
2011,05,04,01,38,5.30
2011,05,04,01,39,5.20
2011,05,04,01,40,5.20
2011,05,04,01,41,5.10
2011,05,04,01,42,5.10
2011,05,04,01,43,5.10
2011,05,04,01,44,5.00
2011,05,04,01,45,5.00
2011,05,04,01,46,4.90
2011,05,04,01,47,4.90
2011,05,04,01,48,4.90
2011,05,04,01,49,4.90
2011,05,04,01,50,4.90
2011,05,04,01,51,4.90
2011,05,04,01,52,4.90
2011,05,04,01,53,4.80
2011,05,04,01,54,4.80
2011,05,04,01,55,4.80
2011,05,04,01,56,4.80
2011,05,04,01,57,4.80
2011,05,04,01,58,4.80
2011,05,04,01,59,4.70
2011,05,04,02,00,4.70
2011,05,04,02,01,4.70
2011,05,04,02,02,4.70
2011,05,04,02,03,4.70
2011,05,04,02,04,4.70
2011,05,04,02,05,4.60
2011,05,04,02,06,4.60
2011,05,04,02,07,4.60
2011,05,04,02,08,4.60
2011,05,04,02,09,4.60
2011,05,04,02,10,4.60
2011,05,04,02,11,4.60
2011,05,04,02,12,4.60
2011,05,04,02,13,4.60
2011,05,04,02,14,4.60
2011,05,04,02,15,4.50
2011,05,04,02,16,4.50
2011,05,04,02,17,4.40
2011,05,04,02,18,4.40
2011,05,04,02,19,4.40
2011,05,04,02,20,4.40
2011,05,04,02,21,4.30
2011,05,04,02,22,4.30
2011,05,04,02,23,4.20
2011,05,04,02,24,4.20
2011,05,04,02,25,4.10
2011,05,04,02,26,4.10
2011,05,04,02,27,4.10
2011,05,04,02,28,4.10
2011,05,04,02,29,4.00
2011,05,04,02,30,4.00
2011,05,04,02,31,3.90
2011,05,04,02,32,3.90
2011,05,04,02,33,3.90
2011,05,04,02,34,3.80
2011,05,04,02,35,3.80
2011,05,04,02,36,3.80
2011,05,04,02,37,3.70
2011,05,04,02,38,3.70
2011,05,04,02,39,3.70
2011,05,04,02,40,3.60
2011,05,04,02,41,3.60
2011,05,04,02,42,3.60
2011,05,04,02,43,3.60
2011,05,04,02,44,3.60
2011,05,04,02,45,3.50
2011,05,04,02,46,3.50
2011,05,04,02,47,3.50
2011,05,04,02,48,3.50
2011,05,04,02,49,3.40
2011,05,04,02,50,3.40
2011,05,04,02,51,3.40
2011,05,04,02,52,3.40
2011,05,04,02,53,3.30
2011,05,04,02,54,3.30
2011,05,04,02,55,3.30
2011,05,04,02,56,3.30
2011,05,04,02,57,3.30
2011,05,04,02,58,3.30
2011,05,04,02,59,3.30
2011,05,04,03,00,3.20
2011,05,04,03,01,3.20
2011,05,04,03,02,3.20
2011,05,04,03,03,3.20
2011,05,04,03,04,3.20
2011,05,04,03,05,3.20
2011,05,04,03,06,3.20
2011,05,04,03,07,3.20
2011,05,04,03,08,3.20
2011,05,04,03,09,3.10
2011,05,04,03,10,3.10
2011,05,04,03,11,3.10
2011,05,04,03,12,3.10
2011,05,04,03,13,3.10
2011,05,04,03,14,3.10
2011,05,04,03,15,3.10
2011,05,04,03,16,3.00
2011,05,04,03,17,3.00
2011,05,04,03,18,3.00
2011,05,04,03,19,3.00
2011,05,04,03,20,3.00
2011,05,04,03,21,3.00
2011,05,04,03,22,3.00
2011,05,04,03,23,2.90
2011,05,04,03,24,2.90
2011,05,04,03,25,2.90
2011,05,04,03,26,2.90
2011,05,04,03,27,2.90
2011,05,04,03,28,2.90
2011,05,04,03,29,2.90
2011,05,04,03,30,2.90
2011,05,04,03,31,2.90
2011,05,04,03,32,2.80
2011,05,04,03,33,2.80
2011,05,04,03,34,2.80
2011,05,04,03,35,2.80
2011,05,04,03,36,2.80
2011,05,04,03,37,2.80
2011,05,04,03,38,2.80
2011,05,04,03,39,2.80
2011,05,04,03,40,2.80
2011,05,04,03,41,2.80
2011,05,04,03,42,2.80
2011,05,04,03,43,2.80
2011,05,04,03,44,2.80
2011,05,04,03,45,2.80
2011,05,04,03,46,2.80
2011,05,04,03,47,2.80
2011,05,04,03,48,2.80
2011,05,04,03,49,2.80
2011,05,04,03,50,2.80
2011,05,04,03,51,2.80
2011,05,04,03,52,2.70
2011,05,04,03,53,2.70
2011,05,04,03,54,2.70
2011,05,04,03,55,2.70
2011,05,04,03,56,2.70
2011,05,04,03,57,2.70
2011,05,04,03,58,2.70
2011,05,04,03,59,2.70
2011,05,04,04,00,2.60
2011,05,04,04,01,2.60
2011,05,04,04,02,2.60
2011,05,04,04,03,2.60
2011,05,04,04,04,2.60
2011,05,04,04,05,2.60
2011,05,04,04,06,2.60
2011,05,04,04,07,2.60
2011,05,04,04,08,2.50
2011,05,04,04,09,2.50
2011,05,04,04,10,2.50
2011,05,04,04,11,2.40
2011,05,04,04,12,2.40
2011,05,04,04,13,2.40
2011,05,04,04,14,2.40
2011,05,04,04,15,2.40
2011,05,04,04,16,2.40
2011,05,04,04,17,2.40
2011,05,04,04,18,2.40
2011,05,04,04,19,2.30
2011,05,04,04,20,2.30
2011,05,04,04,21,2.30
2011,05,04,04,22,2.30
2011,05,04,04,23,2.30
2011,05,04,04,24,2.30
2011,05,04,04,25,2.30
2011,05,04,04,26,2.30
2011,05,04,04,27,2.30
2011,05,04,04,28,2.30
2011,05,04,04,29,2.30
2011,05,04,04,30,2.30
2011,05,04,04,31,2.20
2011,05,04,04,32,2.20
2011,05,04,04,33,2.20
2011,05,04,04,34,2.20
2011,05,04,04,35,2.20
2011,05,04,04,36,2.20
2011,05,04,04,37,2.20
2011,05,04,04,38,2.20
2011,05,04,04,39,2.20
2011,05,04,04,40,2.20
2011,05,04,04,41,2.20
2011,05,04,04,42,2.20
2011,05,04,04,43,2.20
2011,05,04,04,44,2.20
2011,05,04,04,45,2.20
2011,05,04,04,46,2.20
2011,05,04,04,47,2.20
2011,05,04,04,48,2.20
2011,05,04,04,49,2.20
2011,05,04,04,50,2.20
2011,05,04,04,51,2.20
2011,05,04,04,52,2.10
2011,05,04,04,53,2.10
2011,05,04,04,54,2.10
2011,05,04,04,55,2.10
2011,05,04,04,56,2.10
2011,05,04,04,57,2.10
2011,05,04,04,58,2.10
2011,05,04,04,59,2.10
2011,05,04,05,00,2.10
2011,05,04,05,01,2.10
2011,05,04,05,02,2.00
2011,05,04,05,03,2.00
2011,05,04,05,04,2.00
2011,05,04,05,05,2.00
2011,05,04,05,06,2.00
2011,05,04,05,07,2.00
2011,05,04,05,08,1.90
2011,05,04,05,09,2.00
2011,05,04,05,10,2.00
2011,05,04,05,11,2.00
2011,05,04,05,12,2.00
2011,05,04,05,13,2.00
2011,05,04,05,14,2.00
2011,05,04,05,15,2.00
2011,05,04,05,16,2.00
2011,05,04,05,17,2.00
2011,05,04,05,18,2.00
2011,05,04,05,19,2.00
2011,05,04,05,20,2.00
2011,05,04,05,21,2.00
2011,05,04,05,22,2.00
2011,05,04,05,23,2.00
2011,05,04,05,24,1.90
2011,05,04,05,25,1.90
2011,05,04,05,26,1.90
2011,05,04,05,27,1.90
2011,05,04,05,28,1.90
2011,05,04,05,29,1.90
2011,05,04,05,30,1.90
2011,05,04,05,31,1.90
2011,05,04,05,32,1.90
2011,05,04,05,33,1.90
2011,05,04,05,34,1.90
2011,05,04,05,35,1.90
2011,05,04,05,36,1.90
2011,05,04,05,37,1.90
2011,05,04,05,38,1.90
2011,05,04,05,39,1.90
2011,05,04,05,40,1.90
2011,05,04,05,41,1.90
2011,05,04,05,42,1.90
2011,05,04,05,43,1.90
2011,05,04,05,44,1.90
2011,05,04,05,45,1.90
2011,05,04,05,46,1.90
2011,05,04,05,47,1.90
2011,05,04,05,48,1.90
2011,05,04,05,49,1.90
2011,05,04,05,50,1.90
2011,05,04,05,51,1.90
2011,05,04,05,52,1.90
2011,05,04,05,53,1.90
2011,05,04,05,54,1.90
2011,05,04,05,55,1.90
2011,05,04,05,56,1.90
2011,05,04,05,57,1.90
2011,05,04,05,58,1.90
2011,05,04,05,59,1.90
2011,05,04,06,00,1.90
2011,05,04,06,01,1.90
2011,05,04,06,02,1.90
2011,05,04,06,03,1.90
2011,05,04,06,04,1.90
2011,05,04,06,05,1.90
2011,05,04,06,06,1.90
2011,05,04,06,07,1.90
2011,05,04,06,08,1.90
2011,05,04,06,09,1.90
2011,05,04,06,10,1.90
2011,05,04,06,11,1.90
2011,05,04,06,12,1.90
2011,05,04,06,13,1.90
2011,05,04,06,14,1.90
2011,05,04,06,15,1.90
2011,05,04,06,16,1.90
2011,05,04,06,17,1.90
2011,05,04,06,18,1.90
2011,05,04,06,19,2.00
2011,05,04,06,20,2.00
2011,05,04,06,21,2.00
2011,05,04,06,22,2.00
2011,05,04,06,23,2.00
2011,05,04,06,24,2.00
2011,05,04,06,25,2.00
2011,05,04,06,26,2.00
2011,05,04,06,27,2.10
2011,05,04,06,28,2.10
2011,05,04,06,29,2.10
2011,05,04,06,30,2.10
2011,05,04,06,31,2.10
2011,05,04,06,32,2.10
2011,05,04,06,33,2.10
2011,05,04,06,34,2.20
2011,05,04,06,35,2.20
2011,05,04,06,36,2.20
2011,05,04,06,37,2.20
2011,05,04,06,38,2.20
2011,05,04,06,39,2.20
2011,05,04,06,40,2.20
2011,05,04,06,41,2.30
2011,05,04,06,42,2.30
2011,05,04,06,43,2.30
2011,05,04,06,44,2.30
2011,05,04,06,45,2.40
2011,05,04,06,46,2.40
2011,05,04,06,47,2.40
2011,05,04,06,48,2.40
2011,05,04,06,49,2.40
2011,05,04,06,50,2.40
2011,05,04,06,51,2.50
2011,05,04,06,52,2.50
2011,05,04,06,53,2.50
2011,05,04,06,54,2.50
2011,05,04,06,55,2.50
2011,05,04,06,56,2.60
2011,05,04,06,57,2.60
2011,05,04,06,58,2.60
2011,05,04,06,59,2.70
2011,05,04,07,00,2.70
2011,05,04,07,01,2.80
2011,05,04,07,02,2.80
2011,05,04,07,03,2.90
2011,05,04,07,04,3.00
2011,05,04,07,05,3.10
2011,05,04,07,06,3.20
2011,05,04,07,07,3.30
2011,05,04,07,08,3.30
2011,05,04,07,09,3.40
2011,05,04,07,10,3.50
2011,05,04,07,11,3.50
2011,05,04,07,12,3.60
2011,05,04,07,13,3.70
2011,05,04,07,14,3.80
2011,05,04,07,15,3.80
2011,05,04,07,16,3.90
2011,05,04,07,17,4.00
2011,05,04,07,18,4.00
2011,05,04,07,19,4.10
2011,05,04,07,20,4.20
2011,05,04,07,21,4.30
2011,05,04,07,22,4.40
2011,05,04,07,23,4.50
2011,05,04,07,24,4.50
2011,05,04,07,25,4.60
2011,05,04,07,26,4.70
2011,05,04,07,27,4.80
2011,05,04,07,28,4.90
2011,05,04,07,29,5.00
2011,05,04,07,30,5.10
2011,05,04,07,31,5.10
2011,05,04,07,32,5.20
2011,05,04,07,33,5.30
2011,05,04,07,34,5.40
2011,05,04,07,35,5.50
2011,05,04,07,36,5.60
2011,05,04,07,37,5.60
2011,05,04,07,38,5.70
2011,05,04,07,39,5.80
2011,05,04,07,40,5.80
2011,05,04,07,41,5.90
2011,05,04,07,42,6.00
2011,05,04,07,43,6.10
2011,05,04,07,44,6.20
2011,05,04,07,45,6.30
2011,05,04,07,46,6.30
2011,05,04,07,47,6.40
2011,05,04,07,48,6.50
2011,05,04,07,49,6.60
2011,05,04,07,50,6.70
2011,05,04,07,51,6.80
2011,05,04,07,52,6.90
2011,05,04,07,53,6.90
2011,05,04,07,54,7.00
2011,05,04,07,55,7.10
2011,05,04,07,56,7.20
2011,05,04,07,57,7.20
2011,05,04,07,58,7.30
2011,05,04,07,59,7.30
2011,05,04,08,00,7.40
2011,05,04,08,01,7.50
2011,05,04,08,02,7.60
2011,05,04,08,03,7.70
2011,05,04,08,04,7.70
2011,05,04,08,05,7.80
2011,05,04,08,06,7.90
2011,05,04,08,07,7.90
2011,05,04,08,08,8.00
2011,05,04,08,09,8.10
2011,05,04,08,10,8.20
2011,05,04,08,11,8.20
2011,05,04,08,12,8.30
2011,05,04,08,13,8.30
2011,05,04,08,14,8.30
2011,05,04,08,15,8.30
2011,05,04,08,16,8.30
2011,05,04,08,17,8.30
2011,05,04,08,18,8.40
2011,05,04,08,19,8.40
2011,05,04,08,20,8.40
2011,05,04,08,21,8.50
2011,05,04,08,22,8.60
2011,05,04,08,23,8.70
2011,05,04,08,24,8.80
2011,05,04,08,25,8.90
2011,05,04,08,26,8.90
2011,05,04,08,27,9.00
2011,05,04,08,28,9.10
2011,05,04,08,29,9.20
2011,05,04,08,30,9.30
2011,05,04,08,31,9.30
2011,05,04,08,32,9.40
2011,05,04,08,33,9.50
2011,05,04,08,34,9.50
2011,05,04,08,35,9.60
2011,05,04,08,36,9.60
2011,05,04,08,37,9.60
2011,05,04,08,38,9.60
2011,05,04,08,39,9.60
2011,05,04,08,40,9.60
2011,05,04,08,41,9.60
2011,05,04,08,42,9.60
2011,05,04,08,43,9.60
2011,05,04,08,44,9.70
2011,05,04,08,45,9.70
2011,05,04,08,46,9.70
2011,05,04,08,47,9.70
2011,05,04,08,48,9.80
2011,05,04,08,49,9.80
2011,05,04,08,50,9.80
2011,05,04,08,51,9.80
2011,05,04,08,52,9.90
2011,05,04,08,53,9.90
2011,05,04,08,54,10.00
2011,05,04,08,55,10.10
2011,05,04,08,56,10.10
2011,05,04,08,57,10.10
2011,05,04,08,58,10.10
2011,05,04,08,59,10.10
2011,05,04,09,00,10.10
2011,05,04,09,01,10.10
2011,05,04,09,02,10.20
2011,05,04,09,03,10.20
2011,05,04,09,04,10.20
2011,05,04,09,05,10.10
2011,05,04,09,06,10.10
2011,05,04,09,07,10.00
2011,05,04,09,08,10.00
2011,05,04,09,09,10.00
2011,05,04,09,10,9.90
2011,05,04,09,11,9.90
2011,05,04,09,12,9.90
2011,05,04,09,13,9.90
2011,05,04,09,14,9.90
2011,05,04,09,15,9.90
2011,05,04,09,16,9.90
2011,05,04,09,17,10.00
2011,05,04,09,18,10.00
2011,05,04,09,19,10.00
2011,05,04,09,20,10.10
2011,05,04,09,21,10.10
2011,05,04,09,22,10.10
2011,05,04,09,23,10.10
2011,05,04,09,24,10.10
2011,05,04,09,25,10.10
2011,05,04,09,26,10.10
2011,05,04,09,27,10.10
2011,05,04,09,28,10.00
2011,05,04,09,29,9.90
2011,05,04,09,30,10.00
2011,05,04,09,31,10.00
2011,05,04,09,32,10.00
2011,05,04,09,33,10.00
2011,05,04,09,34,10.10
2011,05,04,09,35,10.20
2011,05,04,09,36,10.20
2011,05,04,09,37,10.30
2011,05,04,09,38,10.30
2011,05,04,09,39,10.30
2011,05,04,09,40,10.40
2011,05,04,09,41,10.50
2011,05,04,09,42,10.60
2011,05,04,09,43,10.60
2011,05,04,09,44,10.70
2011,05,04,09,45,10.70
2011,05,04,09,46,10.80
2011,05,04,09,47,10.80
2011,05,04,09,48,10.80
2011,05,04,09,49,10.80
2011,05,04,09,50,10.80
2011,05,04,09,51,10.80
2011,05,04,09,52,10.70
2011,05,04,09,53,10.70
2011,05,04,09,54,10.70
2011,05,04,09,55,10.70
2011,05,04,09,56,10.70
2011,05,04,09,57,10.70
2011,05,04,09,58,10.70
2011,05,04,09,59,10.80
2011,05,04,10,00,10.80
2011,05,04,10,01,10.80
2011,05,04,10,02,10.90
2011,05,04,10,03,10.90
2011,05,04,10,04,10.90
2011,05,04,10,05,10.90
2011,05,04,10,06,11.00
2011,05,04,10,07,11.00
2011,05,04,10,08,11.10
2011,05,04,10,09,11.20
2011,05,04,10,10,11.20
2011,05,04,10,11,11.20
2011,05,04,10,12,11.20
2011,05,04,10,13,11.20
2011,05,04,10,14,11.20
2011,05,04,10,15,11.20
2011,05,04,10,16,11.10
2011,05,04,10,17,11.10
2011,05,04,10,18,11.10
2011,05,04,10,19,11.20
2011,05,04,10,20,11.20
2011,05,04,10,21,11.40
2011,05,04,10,22,11.50
2011,05,04,10,23,11.70
2011,05,04,10,24,11.70
2011,05,04,10,25,11.70
2011,05,04,10,26,11.70
2011,05,04,10,27,11.80
2011,05,04,10,28,11.80
2011,05,04,10,29,11.90
2011,05,04,10,30,11.90
2011,05,04,10,31,11.90
2011,05,04,10,32,12.00
2011,05,04,10,33,12.10
2011,05,04,10,34,12.10
2011,05,04,10,35,12.10
2011,05,04,10,36,12.10
2011,05,04,10,37,12.20
2011,05,04,10,38,12.10
2011,05,04,10,39,12.20
2011,05,04,10,40,12.20
2011,05,04,10,41,12.20
2011,05,04,10,42,12.20
2011,05,04,10,43,12.20
2011,05,04,10,44,12.20
2011,05,04,10,45,12.40
2011,05,04,10,46,12.40
2011,05,04,10,47,12.30
2011,05,04,10,48,12.20
2011,05,04,10,49,12.20
2011,05,04,10,50,12.20
2011,05,04,10,51,12.20
2011,05,04,10,52,12.20
2011,05,04,10,53,12.20
2011,05,04,10,54,12.20
2011,05,04,10,55,12.20
2011,05,04,10,56,12.20
2011,05,04,10,57,12.10
2011,05,04,10,58,12.10
2011,05,04,10,59,12.10
2011,05,04,11,00,12.10
2011,05,04,11,01,12.10
2011,05,04,11,02,12.10
2011,05,04,11,03,12.10
2011,05,04,11,04,12.10
2011,05,04,11,05,12.20
2011,05,04,11,06,12.20
2011,05,04,11,07,12.20
2011,05,04,11,08,12.10
2011,05,04,11,09,12.10
2011,05,04,11,10,12.10
2011,05,04,11,11,12.10
2011,05,04,11,12,12.10
2011,05,04,11,13,12.20
2011,05,04,11,14,12.30
2011,05,04,11,15,12.40
2011,05,04,11,16,12.40
2011,05,04,11,17,12.50
2011,05,04,11,18,12.60
2011,05,04,11,19,12.60
2011,05,04,11,20,12.70
2011,05,04,11,21,12.70
2011,05,04,11,22,12.70
2011,05,04,11,23,12.60
2011,05,04,11,24,12.60
2011,05,04,11,25,12.60
2011,05,04,11,26,12.60
2011,05,04,11,27,12.60
2011,05,04,11,28,12.60
2011,05,04,11,29,12.50
2011,05,04,11,30,12.50
2011,05,04,11,31,12.50
2011,05,04,11,32,12.40
2011,05,04,11,33,12.40
2011,05,04,11,34,12.40
2011,05,04,11,35,12.40
2011,05,04,11,36,12.30
2011,05,04,11,37,12.30
2011,05,04,11,38,12.30
2011,05,04,11,39,12.40
2011,05,04,11,40,12.50
2011,05,04,11,41,12.60
2011,05,04,11,42,12.70
2011,05,04,11,43,12.90
2011,05,04,11,44,12.90
2011,05,04,11,45,13.00
2011,05,04,11,46,13.00
2011,05,04,11,47,12.90
2011,05,04,11,48,12.80
2011,05,04,11,49,12.70
2011,05,04,11,50,12.70
2011,05,04,11,51,12.70
2011,05,04,11,52,12.70
2011,05,04,11,53,12.60
2011,05,04,11,54,12.70
2011,05,04,11,55,12.80
2011,05,04,11,56,12.90
2011,05,04,11,57,12.90
2011,05,04,11,58,13.10
2011,05,04,11,59,13.20
2011,05,04,12,00,13.20
2011,05,04,12,01,13.20
2011,05,04,12,02,13.00
2011,05,04,12,03,12.80
2011,05,04,12,04,12.80
2011,05,04,12,05,12.70
2011,05,04,12,06,12.70
2011,05,04,12,07,12.80
2011,05,04,12,08,12.80
2011,05,04,12,09,12.70
2011,05,04,12,10,12.60
2011,05,04,12,11,12.60
2011,05,04,12,12,12.50
2011,05,04,12,13,12.50
2011,05,04,12,14,12.40
2011,05,04,12,15,12.30
2011,05,04,12,16,12.20
2011,05,04,12,17,12.10
2011,05,04,12,18,12.10
2011,05,04,12,19,12.00
2011,05,04,12,20,11.90
2011,05,04,12,21,11.80
2011,05,04,12,22,11.90
2011,05,04,12,23,12.00
2011,05,04,12,24,12.10
2011,05,04,12,25,12.20
2011,05,04,12,26,12.20
2011,05,04,12,27,12.20
2011,05,04,12,28,12.30
2011,05,04,12,29,12.40
2011,05,04,12,30,12.50
2011,05,04,12,31,12.60
2011,05,04,12,32,12.70
2011,05,04,12,33,12.80
2011,05,04,12,34,12.80
2011,05,04,12,35,12.80
2011,05,04,12,36,12.80
2011,05,04,12,37,12.80
2011,05,04,12,38,12.80
2011,05,04,12,39,12.80
2011,05,04,12,40,12.80
2011,05,04,12,41,12.70
2011,05,04,12,42,12.80
2011,05,04,12,43,12.80
2011,05,04,12,44,12.70
2011,05,04,12,45,12.80
2011,05,04,12,46,12.70
2011,05,04,12,47,12.70
2011,05,04,12,48,12.60
2011,05,04,12,49,12.60
2011,05,04,12,50,12.50
2011,05,04,12,51,12.50
2011,05,04,12,52,12.40
2011,05,04,12,53,12.40
2011,05,04,12,54,12.40
2011,05,04,12,55,12.50
2011,05,04,12,56,12.50
2011,05,04,12,57,12.60
2011,05,04,12,58,12.50
2011,05,04,12,59,12.50
2011,05,04,13,00,12.50
2011,05,04,13,01,12.50
2011,05,04,13,02,12.60
2011,05,04,13,03,12.60
2011,05,04,13,04,12.70
2011,05,04,13,05,12.70
2011,05,04,13,06,12.80
2011,05,04,13,07,12.80
2011,05,04,13,08,12.80
2011,05,04,13,09,12.80
2011,05,04,13,10,12.90
2011,05,04,13,11,12.90
2011,05,04,13,12,12.90
2011,05,04,13,13,12.90
2011,05,04,13,14,12.90
2011,05,04,13,15,12.90
2011,05,04,13,16,12.90
2011,05,04,13,17,13.00
2011,05,04,13,18,13.20
2011,05,04,13,19,13.20
2011,05,04,13,20,13.20
2011,05,04,13,21,13.20
2011,05,04,13,22,13.10
2011,05,04,13,23,13.00
2011,05,04,13,24,12.90
2011,05,04,13,25,12.90
2011,05,04,13,26,12.90
2011,05,04,13,27,12.90
2011,05,04,13,28,12.90
2011,05,04,13,29,13.00
2011,05,04,13,30,13.00
2011,05,04,13,31,13.00
2011,05,04,13,32,13.10
2011,05,04,13,33,13.20
2011,05,04,13,34,13.20
2011,05,04,13,35,13.20
2011,05,04,13,36,13.10
2011,05,04,13,37,13.10
2011,05,04,13,38,13.20
2011,05,04,13,39,13.20
2011,05,04,13,40,13.30
2011,05,04,13,41,13.30
2011,05,04,13,42,13.40
2011,05,04,13,43,13.40
2011,05,04,13,44,13.50
2011,05,04,13,45,13.60
2011,05,04,13,46,13.50
2011,05,04,13,47,13.50
2011,05,04,13,48,13.50
2011,05,04,13,49,13.60
2011,05,04,13,50,13.50
2011,05,04,13,51,13.40
2011,05,04,13,52,13.40
2011,05,04,13,53,13.40
2011,05,04,13,54,13.40
2011,05,04,13,55,13.40
2011,05,04,13,56,13.40
2011,05,04,13,57,13.40
2011,05,04,13,58,13.40
2011,05,04,13,59,13.50
2011,05,04,14,00,13.50
2011,05,04,14,01,13.60
2011,05,04,14,02,13.60
2011,05,04,14,03,13.70
2011,05,04,14,04,13.60
2011,05,04,14,05,13.60
2011,05,04,14,06,13.50
2011,05,04,14,07,13.50
2011,05,04,14,08,13.60
2011,05,04,14,09,13.60
2011,05,04,14,10,13.60
2011,05,04,14,11,13.60
2011,05,04,14,12,13.60
2011,05,04,14,13,13.60
2011,05,04,14,14,13.50
2011,05,04,14,15,13.50
2011,05,04,14,16,13.50
2011,05,04,14,17,13.60
2011,05,04,14,18,13.60
2011,05,04,14,19,13.60
2011,05,04,14,20,13.60
2011,05,04,14,21,13.50
2011,05,04,14,22,13.50
2011,05,04,14,23,13.60
2011,05,04,14,24,13.80
2011,05,04,14,25,13.80
2011,05,04,14,26,13.70
2011,05,04,14,27,13.70
2011,05,04,14,28,13.70
2011,05,04,14,29,13.70
2011,05,04,14,30,13.70
2011,05,04,14,31,13.80
2011,05,04,14,32,13.80
2011,05,04,14,33,13.80
2011,05,04,14,34,13.80
2011,05,04,14,35,13.90
2011,05,04,14,36,13.90
2011,05,04,14,37,14.00
2011,05,04,14,38,14.10
2011,05,04,14,39,14.20
2011,05,04,14,40,14.20
2011,05,04,14,41,14.30
2011,05,04,14,42,14.20
2011,05,04,14,43,14.30
2011,05,04,14,44,14.30
2011,05,04,14,45,14.30
2011,05,04,14,46,14.30
2011,05,04,14,47,14.20
2011,05,04,14,48,14.10
2011,05,04,14,49,14.10
2011,05,04,14,50,14.10
2011,05,04,14,51,14.10
2011,05,04,14,52,14.20
2011,05,04,14,53,14.20
2011,05,04,14,54,14.30
2011,05,04,14,55,14.30
2011,05,04,14,56,14.30
2011,05,04,14,57,14.30
2011,05,04,14,58,14.30
2011,05,04,14,59,14.40
2011,05,04,15,00,14.50
2011,05,04,15,01,14.50
2011,05,04,15,02,14.60
2011,05,04,15,03,14.70
2011,05,04,15,04,14.60
2011,05,04,15,05,14.60
2011,05,04,15,06,14.60
2011,05,04,15,07,14.60
2011,05,04,15,08,14.60
2011,05,04,15,09,14.70
2011,05,04,15,10,14.70
2011,05,04,15,11,14.70
2011,05,04,15,12,14.70
2011,05,04,15,13,14.60
2011,05,04,15,14,14.60
2011,05,04,15,15,14.60
2011,05,04,15,16,14.60
2011,05,04,15,17,14.60
2011,05,04,15,18,14.60
2011,05,04,15,19,14.70
2011,05,04,15,20,14.70
2011,05,04,15,21,14.80
2011,05,04,15,22,14.80
2011,05,04,15,23,14.80
2011,05,04,15,24,14.80
2011,05,04,15,25,14.80
2011,05,04,15,26,14.90
2011,05,04,15,27,15.00
2011,05,04,15,28,15.00
2011,05,04,15,29,15.00
2011,05,04,15,30,14.80
2011,05,04,15,31,14.80
2011,05,04,15,32,14.70
2011,05,04,15,33,14.60
2011,05,04,15,34,14.60
2011,05,04,15,35,14.70
2011,05,04,15,36,14.70
2011,05,04,15,37,14.80
2011,05,04,15,38,14.80
2011,05,04,15,39,14.80
2011,05,04,15,40,14.80
2011,05,04,15,41,14.80
2011,05,04,15,42,14.80
2011,05,04,15,43,14.80
2011,05,04,15,44,14.70
2011,05,04,15,45,14.70
2011,05,04,15,46,14.70
2011,05,04,15,47,14.60
2011,05,04,15,48,14.60
2011,05,04,15,49,14.60
2011,05,04,15,50,14.50
2011,05,04,15,51,14.50
2011,05,04,15,52,14.40
2011,05,04,15,53,14.50
2011,05,04,15,54,14.50
2011,05,04,15,55,14.60
2011,05,04,15,56,14.60
2011,05,04,15,57,14.70
2011,05,04,15,58,14.70
2011,05,04,15,59,14.70
2011,05,04,16,00,14.70
2011,05,04,16,01,14.70
2011,05,04,16,02,14.60
2011,05,04,16,03,14.60
2011,05,04,16,04,14.50
2011,05,04,16,05,14.40
2011,05,04,16,06,14.40
2011,05,04,16,07,14.40
2011,05,04,16,08,14.50
2011,05,04,16,09,14.50
2011,05,04,16,10,14.50
2011,05,04,16,11,14.60
2011,05,04,16,12,14.60
2011,05,04,16,13,14.70
2011,05,04,16,14,14.70
2011,05,04,16,15,14.70
2011,05,04,16,16,14.70
2011,05,04,16,17,14.60
2011,05,04,16,18,14.60
2011,05,04,16,19,14.60
2011,05,04,16,20,14.60
2011,05,04,16,21,14.60
2011,05,04,16,22,14.60
2011,05,04,16,23,14.60
2011,05,04,16,24,14.50
2011,05,04,16,25,14.50
2011,05,04,16,26,14.50
2011,05,04,16,27,14.40
2011,05,04,16,28,14.40
2011,05,04,16,29,14.40
2011,05,04,16,30,14.40
2011,05,04,16,31,14.40
2011,05,04,16,32,14.40
2011,05,04,16,33,14.30
2011,05,04,16,34,14.30
2011,05,04,16,35,14.30
2011,05,04,16,36,14.40
2011,05,04,16,37,14.40
2011,05,04,16,38,14.50
2011,05,04,16,39,14.50
2011,05,04,16,40,14.40
2011,05,04,16,41,14.40
2011,05,04,16,42,14.40
2011,05,04,16,43,14.40
2011,05,04,16,44,14.50
2011,05,04,16,45,14.60
2011,05,04,16,46,14.70
2011,05,04,16,47,14.70
2011,05,04,16,48,14.70
2011,05,04,16,49,14.70
2011,05,04,16,50,14.80
2011,05,04,16,51,14.70
2011,05,04,16,52,14.80
2011,05,04,16,53,14.80
2011,05,04,16,54,14.80
2011,05,04,16,55,14.80
2011,05,04,16,56,14.70
2011,05,04,16,57,14.70
2011,05,04,16,58,14.70
2011,05,04,16,59,14.60
2011,05,04,17,00,14.60
2011,05,04,17,01,14.60
2011,05,04,17,02,14.50
2011,05,04,17,03,14.50
2011,05,04,17,04,14.40
2011,05,04,17,05,14.30
2011,05,04,17,06,14.30
2011,05,04,17,07,14.30
2011,05,04,17,08,14.30
2011,05,04,17,09,14.20
2011,05,04,17,10,14.20
2011,05,04,17,11,14.20
2011,05,04,17,12,14.20
2011,05,04,17,13,14.20
2011,05,04,17,14,14.20
2011,05,04,17,15,14.10
2011,05,04,17,16,14.10
2011,05,04,17,17,14.10
2011,05,04,17,18,14.00
2011,05,04,17,19,14.00
2011,05,04,17,20,14.00
2011,05,04,17,21,14.00
2011,05,04,17,22,14.00
2011,05,04,17,23,13.90
2011,05,04,17,24,13.90
2011,05,04,17,25,14.00
2011,05,04,17,26,14.00
2011,05,04,17,27,14.10
2011,05,04,17,28,14.10
2011,05,04,17,29,14.20
2011,05,04,17,30,14.30
2011,05,04,17,31,14.30
2011,05,04,17,32,14.20
2011,05,04,17,33,14.20
2011,05,04,17,34,14.20
2011,05,04,17,35,14.20
2011,05,04,17,36,14.20
2011,05,04,17,37,14.20
2011,05,04,17,38,14.20
2011,05,04,17,39,14.10
2011,05,04,17,40,14.20
2011,05,04,17,41,14.10
2011,05,04,17,42,14.10
2011,05,04,17,43,14.10